Location: Cheyres
(46.8153°N, 6.7877°E)
Time: 00:00:47
(UTC+00:00)

Cosmos 1844 Rocket - Pass Details

Date: 11 May 2021
Orbit: 823 x 846 km, 71.0° (Epoch: 23 June)

Event Time Altitude Azimuth Distance (km) Brightness Sun altitude
Rises 20:21:47 0° 232° (SW) 3,350 5.9 -12.6°
Reaches altitude 10° 20:24:24 10° 241° (WSW) 2,422 5.3 -12.9°
Maximum altitude 20:29:29 36° 307° (NW) 1,286 4.4 -13.5°
Drops below altitude 10° 20:34:38 10° 14° (NNE) 2,445 5.6 -14.1°
Sets 20:37:17 0° 23° (NNE) 3,385 6.2 -14.4°
